Camarillo, CA

8:05 PM PST on February 19, 2017 (GMT -0800)
Camarillo

Weather History for KCMA - March, 2012

Change the Weather History Date:

Sunday, March 18, 2012

  Actual Average Record
Temperature  
Mean Temperature 50 °F 56 °F  
Max Temperature 56 °F 66 °F 90 °F (1978)
Min Temperature 44 °F 47 °F 33 °F (1963)
Degree Days  
Heating Degree Days 15 9  
Month to date heating degree days 162 173  
Since 1 July heating degree days 1226 1509  
Cooling Degree Days 0 0  
Month to date cooling degree days 1 0  
Year to date cooling degree days 11 9  
Moisture  
Dew Point 38 °F    
Average Humidity 68    
Maximum Humidity 86    
Minimum Humidity 50    
Precipitation  
Precipitation 0.00 in 0.06 in 2.10 in (1991)
Month to date precipitation 0.68 2.18  
Year to date precipitation 2.32 9.36  
Since 1 July precipitation 5.35  
Sea Level Pressure  
Sea Level Pressure 29.83 in    
Wind  
Wind Speed 19 mph (West)    
Max Wind Speed 39 mph    
Max Gust Speed 44 mph    
Visibility 10 miles    
Events      
T = Trace of Precipitation, MM = Missing Value Source: NWS Daily Summary

Daily Weather History Graph

Daily Weather History Graph

Search for Another Location

Airport or City:

Trip Planner

Search our weather history database for the weather conditions in past years. The results will help you decide how hot, cold, wet, or windy it might be!

Date:

Astronomy

Mar. 18, 2012 Rise Set
Actual Time 7:01 AM PDT 7:06 PM PDT
Civil Twilight 6:36 AM PDT 7:31 PM PDT
Nautical Twilight 6:07 AM PDT 8:01 PM PDT
Astronomical Twilight 5:38 AM PDT 8:30 PM PDT
Moon 4:34 AM PDT (3/18) 3:46 PM PDT (3/18)
Length of Visible Light 12h 54m
Length of Day
12h 04m
Waning Crescent, 14% of the Moon is Illuminated
Mar 18
Waning Crescent
Mar 22
New
Mar 30
First Quarter
Apr 6
Full
Apr 13
Last Quarter

Hourly Weather History & Observations

Time (PDT) Temp. Windchill Dew Point Humidity Pressure Visibility Wind Dir Wind Speed Gust Speed Precip Events Conditions
12:55 AM 46.0 °F - 42.1 °F 86% 29.76 in 10.0 mi Calm Calm - N/A   Mostly Cloudy
1:27 AM 46.4 °F - 41.0 °F 81% 29.74 in 10.0 mi Calm Calm - N/A   Mostly Cloudy
1:50 AM 46.4 °F - 41.0 °F 81% 29.73 in 10.0 mi Calm Calm - N/A   Mostly Cloudy
1:55 AM 46.9 °F - 39.9 °F 77% 29.76 in 10.0 mi West 3.5 mph - N/A   Mostly Cloudy
2:55 AM 45.0 °F - 39.0 °F 80% 29.75 in 10.0 mi Calm Calm - N/A   Scattered Clouds
3:02 AM 44.6 °F - 39.2 °F 81% 29.72 in 10.0 mi Calm Calm - N/A   Mostly Cloudy
3:55 AM 46.0 °F - 39.9 °F 79% 29.74 in 10.0 mi Calm Calm - N/A   Overcast
4:28 AM 44.6 °F 41.4 °F 39.2 °F 81% 29.71 in 10.0 mi NW 5.8 mph - N/A   Overcast
4:55 AM 45.0 °F 41.2 °F 37.9 °F 76% 29.74 in 10.0 mi NW 6.9 mph - N/A   Mostly Cloudy
5:55 AM 44.1 °F 42.5 °F 37.0 °F 76% 29.77 in 10.0 mi NNW 3.5 mph - N/A   Mostly Cloudy
6:55 AM 46.0 °F 40.6 °F 37.0 °F 71% 29.78 in 10.0 mi WNW 11.5 mph - N/A   Clear
7:55 AM 46.0 °F 44.8 °F 37.0 °F 71% 29.81 in 10.0 mi NW 3.5 mph - N/A   Partly Cloudy
8:55 AM 48.9 °F - 37.9 °F 66% 29.82 in 10.0 mi West 25.3 mph 31.1 mph N/A   Clear
9:55 AM 51.1 °F - 37.0 °F 59% 29.85 in 10.0 mi West 23.0 mph 33.4 mph N/A   Clear
10:55 AM 52.0 °F - 39.0 °F 61% 29.86 in 10.0 mi West 26.5 mph - N/A   Partly Cloudy
11:55 AM 53.1 °F - 39.0 °F 59% 29.88 in 10.0 mi West 27.6 mph 33.4 mph N/A   Clear
12:55 PM 54.0 °F - 39.0 °F 57% 29.88 in 10.0 mi West 24.2 mph 33.4 mph N/A   Clear
1:55 PM 54.0 °F - 39.0 °F 57% 29.87 in 10.0 mi West 32.2 mph 39.1 mph N/A   Clear
2:55 PM 55.0 °F - 39.9 °F 57% 29.88 in 10.0 mi West 25.3 mph 36.8 mph N/A   Clear
3:55 PM 54.0 °F - 37.0 °F 53% 29.87 in 10.0 mi West 27.6 mph 38.0 mph N/A   Clear
4:55 PM 54.0 °F - 39.0 °F 57% 29.86 in 10.0 mi West 28.8 mph 39.1 mph N/A   Clear
6:55 PM 51.1 °F - 36.0 °F 56% 29.89 in 10.0 mi West 25.3 mph 34.5 mph N/A   Clear
7:55 PM 50.0 °F - 32.0 °F 50% 29.89 in 10.0 mi West 31.1 mph 38.0 mph N/A   Clear
8:55 PM 48.9 °F - 35.1 °F 59% 29.94 in 10.0 mi West 20.7 mph 28.8 mph N/A   Clear
9:55 PM 48.9 °F - 35.1 °F 59% 29.96 in 10.0 mi West 19.6 mph - N/A   Clear
10:55 PM 48.9 °F - 36.0 °F 61% 29.98 in 10.0 mi West 17.3 mph 23.0 mph N/A   Partly Cloudy
11:55 PM 48.9 °F - 35.1 °F 59% 29.97 in 10.0 mi West 17.3 mph 24.2 mph N/A   Mostly Cloudy